JIELONG-3 DEB

Last updated on Tue Sep 16 2025 00:02:08 GMT+0000 (Coordinated Universal Time)

1 65561U 25201M 25258.20145062 .00030523 00000+0 57705-3 0 9994 2 65561 50.0796 233.4851 0185960 10.0413 350.4182 15.31429783 978
UTC large
Height (km)
Speed (km/s)
/
Latitude / Longitude
Inclination (degrees)
Orbital Period (minutes)
Azimuth
Elevation
Range (km)
Doppler Factor

Next 0 passes for location: London (51.5072 / 0.1276)

Sorry there are no passes over London.